Weather History for Rickenbacker, OH

Change the Weather History Date:

Saturday, November 24, 2012

  Actual Average Record
Temperature  
Mean Temperature 34 °F -  
Max Temperature 35 °F 48 °F 69 °F (2001)
Min Temperature 32 °F 32 °F 17 °F (2005)
Degree Days  
Heating Degree Days 32    
Moisture  
Dew Point 20 °F    
Average Humidity 59    
Maximum Humidity 67    
Minimum Humidity 51    
Precipitation  
Precipitation 0.00 in - - ()
Sea Level Pressure  
Sea Level Pressure 30.14 in    
Wind  
Wind Speed 12 mph (West)    
Max Wind Speed 17 mph    
Max Gust Speed 23 mph    
Visibility 10 miles    
Events Snow    
Averages and records for this station are not official NWS values.
T = Trace of Precipitation, MM = Missing Value Source: NWS Daily Summary

Daily Weather History Graph

Daily Weather History Graph

Search for Another Location

Airport:

Trip Planner

Search our weather history database for the weather conditions in past years. The results will help you decide how hot, cold, wet, or windy it might be!

Date:

Astronomy

Nov. 24, 2012 Rise Set
Actual Time 7:27 AM EST 5:09 PM EST
Civil Twilight 6:57 AM EST 5:39 PM EST
Nautical Twilight 6:24 AM EST 6:12 PM EST
Astronomical Twilight 5:51 AM EST 6:44 PM EST
Moon 2:53 PM EST (11/24) 3:43 AM EST (11/24)
Length of Visible Light 10h 41m
Length of Day
9h 42m
Waxing Gibbous, 87% of the Moon is Illuminated
Nov 24
Waxing Gibbous
Nov 28
Full
Dec 6
Last Quarter
Dec 13
New
Dec 20
First Quarter

Hourly Weather History & Observations

Time (EST) Temp. Windchill Dew Point Humidity Pressure Visibility Wind Dir Wind Speed Gust Speed Precip Events Conditions
12:15 AM 33.1 °F 23.4 °F 18.5 °F 55% 30.11 in 10.0 mi West 13.8 mph 19.6 mph N/A   Overcast
12:35 AM 32.9 °F 23.7 °F 18.7 °F 56% 30.10 in 10.0 mi West 12.7 mph - N/A   Overcast
12:55 AM 32.9 °F 23.2 °F 19.0 °F 57% 30.10 in 10.0 mi West 13.8 mph 19.6 mph N/A   Overcast
1:15 AM 32.9 °F 23.2 °F 18.9 °F 56% 30.10 in 10.0 mi WSW 13.8 mph 18.4 mph N/A   Overcast
1:35 AM 32.4 °F 23.0 °F 19.2 °F 58% 30.10 in 10.0 mi West 12.7 mph - N/A   Overcast
1:55 AM 32.4 °F 22.1 °F 19.4 °F 59% 30.10 in 10.0 mi West 15.0 mph - N/A   Overcast
2:15 AM 32.4 °F 21.7 °F 19.2 °F 58% 30.11 in 10.0 mi West 16.1 mph - N/A   Overcast
2:35 AM 32.4 °F 22.1 °F 19.2 °F 58% 30.11 in 10.0 mi West 15.0 mph 20.7 mph N/A   Overcast
2:55 AM 32.4 °F 23.0 °F 19.4 °F 59% 30.11 in 10.0 mi West 12.7 mph - N/A   Overcast
3:15 AM 32.4 °F 23.0 °F 19.6 °F 59% 30.11 in 10.0 mi West 12.7 mph - N/A   Overcast
3:35 AM 32.4 °F 22.5 °F 19.8 °F 60% 30.11 in 10.0 mi West 13.8 mph - N/A   Overcast
3:55 AM 32.5 °F 23.7 °F 19.8 °F 59% 30.11 in 10.0 mi West 11.5 mph - N/A   Overcast
4:15 AM 32.5 °F 22.7 °F 19.9 °F 60% 30.11 in 10.0 mi West 13.8 mph 18.4 mph N/A   Overcast
4:35 AM 32.4 °F 23.0 °F 20.1 °F 61% 30.11 in 10.0 mi West 12.7 mph - N/A   Overcast
4:55 AM 32.4 °F 23.0 °F 20.3 °F 61% 30.11 in 10.0 mi West 12.7 mph - N/A   Overcast
5:15 AM 32.4 °F 23.0 °F 20.3 °F 61% 30.11 in 10.0 mi West 12.7 mph 20.7 mph N/A   Overcast
5:35 AM 32.2 °F 21.8 °F 20.3 °F 62% 30.11 in 10.0 mi West 15.0 mph - N/A   Overcast
5:55 AM 32.2 °F 23.2 °F 20.3 °F 62% 30.12 in 10.0 mi West 11.5 mph - N/A   Overcast
6:15 AM 32.4 °F 23.0 °F 20.5 °F 62% 30.13 in 10.0 mi West 12.7 mph 18.4 mph N/A   Overcast
6:35 AM 32.4 °F 23.0 °F 20.8 °F 63% 30.13 in 10.0 mi West 12.7 mph 17.3 mph N/A   Overcast
6:55 AM 32.4 °F 24.0 °F 21.0 °F 63% 30.13 in 10.0 mi West 10.4 mph - N/A   Overcast
7:15 AM 32.2 °F 23.8 °F 21.2 °F 64% 30.14 in 10.0 mi West 10.4 mph - N/A   Overcast
7:35 AM 32.2 °F 23.2 °F 21.2 °F 64% 30.14 in 10.0 mi West 11.5 mph 17.3 mph N/A   Overcast
7:55 AM 32.2 °F 22.7 °F 21.4 °F 64% 30.14 in 10.0 mi West 12.7 mph - N/A   Overcast
8:15 AM 32.0 °F 24.2 °F 21.6 °F 65% 30.15 in 10.0 mi West 9.2 mph - N/A   Overcast
8:35 AM 32.0 °F 24.2 °F 21.7 °F 66% 30.15 in 10.0 mi West 9.2 mph - N/A   Overcast
8:55 AM 32.0 °F 23.6 °F 21.7 °F 66% 30.15 in 10.0 mi West 10.4 mph - N/A   Overcast
9:15 AM 32.0 °F 22.5 °F 22.3 °F 67% 30.16 in 10.0 mi West 12.7 mph - N/A Snow Light Snow
9:35 AM 32.2 °F 22.3 °F 22.5 °F 67% 30.16 in 7.0 mi West 13.8 mph - N/A Snow Light Snow
9:55 AM 32.4 °F 22.5 °F 22.1 °F 66% 30.17 in 10.0 mi West 13.8 mph - N/A   Overcast
10:15 AM 32.5 °F 22.7 °F 22.1 °F 65% 30.18 in 10.0 mi West 13.8 mph 19.6 mph N/A   Overcast
10:35 AM 32.4 °F 24.0 °F 22.5 °F 67% 30.18 in 10.0 mi WNW 10.4 mph - N/A   Overcast
10:55 AM 32.5 °F 22.3 °F 22.6 °F 67% 30.18 in 10.0 mi West 15.0 mph - N/A   Overcast
11:15 AM 33.1 °F 23.4 °F 22.6 °F 66% 30.18 in 10.0 mi West 13.8 mph - N/A   Overcast
11:35 AM 33.3 °F 23.7 °F 22.5 °F 65% 30.17 in 10.0 mi West 13.8 mph - N/A   Overcast
11:55 AM 34.2 °F 25.2 °F 22.8 °F 63% 30.16 in 10.0 mi West 12.7 mph - N/A   Overcast
12:15 PM 34.7 °F 26.4 °F 22.6 °F 61% 30.15 in 10.0 mi West 11.5 mph 18.4 mph N/A   Overcast
12:35 PM 35.4 °F 25.6 °F 21.9 °F 58% 30.14 in 10.0 mi West 16.1 mph 20.7 mph N/A   Overcast
12:55 PM 35.6 °F 26.6 °F 21.6 °F 57% 30.14 in 10.0 mi West 13.8 mph 23.0 mph N/A   Overcast
1:15 PM 35.4 °F 25.3 °F 21.2 °F 56% 30.14 in 10.0 mi West 17.3 mph 21.9 mph N/A   Overcast
1:35 PM 35.4 °F 26.4 °F 21.0 °F 56% 30.14 in 10.0 mi West 13.8 mph - N/A   Overcast
1:55 PM 35.8 °F 26.1 °F 20.3 °F 53% 30.13 in 10.0 mi West 16.1 mph 19.6 mph N/A   Overcast
2:15 PM 35.2 °F 25.4 °F 18.9 °F 51% 30.13 in 10.0 mi WNW 16.1 mph 21.9 mph N/A   Overcast
2:35 PM 35.2 °F 25.8 °F 18.7 °F 51% 30.13 in 10.0 mi West 15.0 mph - N/A   Overcast
2:55 PM 35.4 °F 26.4 °F 18.7 °F 51% 30.13 in 10.0 mi West 13.8 mph 17.3 mph N/A   Overcast
3:15 PM 35.1 °F 26.4 °F 19.0 °F 52% 30.14 in 10.0 mi West 12.7 mph - N/A   Overcast
3:35 PM 34.5 °F 25.7 °F 18.1 °F 51% 30.15 in 10.0 mi WNW 12.7 mph 20.7 mph N/A   Overcast
3:55 PM 34.3 °F 25.0 °F 18.1 °F 52% 30.15 in 10.0 mi West 13.8 mph 18.4 mph N/A   Overcast
4:15 PM 34.2 °F 26.2 °F 18.9 °F 54% 30.15 in 10.0 mi West 10.4 mph 17.3 mph N/A   Overcast
4:35 PM 33.8 °F 25.3 °F 19.9 °F 57% 30.15 in 10.0 mi West 11.5 mph - N/A   Overcast
4:55 PM 33.6 °F 25.0 °F 20.5 °F 59% 30.15 in 10.0 mi West 11.5 mph - N/A   Overcast
5:15 PM 33.4 °F 25.4 °F 20.8 °F 60% 30.15 in 10.0 mi West 10.4 mph - N/A   Overcast
5:35 PM 33.3 °F 25.1 °F 20.8 °F 60% 30.15 in 10.0 mi West 10.4 mph - N/A   Overcast
5:55 PM 33.1 °F 25.5 °F 20.1 °F 59% 30.16 in 10.0 mi West 9.2 mph - N/A   Overcast
6:15 PM 33.1 °F 24.9 °F 20.1 °F 59% 30.16 in 10.0 mi West 10.4 mph - N/A   Overcast
6:35 PM 33.1 °F 24.9 °F 19.6 °F 58% 30.16 in 10.0 mi West 10.4 mph 16.1 mph N/A   Overcast
6:55 PM 33.1 °F 26.9 °F 19.8 °F 58% 30.16 in 10.0 mi West 6.9 mph - N/A   Overcast
7:15 PM 33.1 °F 26.1 °F 19.6 °F 58% 30.16 in 10.0 mi WNW 8.1 mph - N/A   Overcast
7:35 PM 32.9 °F 25.9 °F 19.0 °F 57% 30.16 in 10.0 mi West 8.1 mph - N/A   Overcast
7:55 PM 32.9 °F 27.5 °F 19.4 °F 58% 30.16 in 10.0 mi West 5.8 mph - N/A   Overcast
8:15 PM 32.9 °F 25.9 °F 19.9 °F 59% 30.15 in 10.0 mi West 8.1 mph - N/A   Overcast
8:35 PM 32.7 °F 25.7 °F 18.7 °F 56% 30.15 in 10.0 mi West 8.1 mph - N/A   Overcast
8:55 PM 32.4 °F 26.0 °F 18.9 °F 58% 30.14 in 10.0 mi West 6.9 mph - N/A   Overcast
9:15 PM 32.2 °F 25.0 °F 18.7 °F 58% 30.14 in 10.0 mi WSW 8.1 mph - N/A   Overcast
9:35 PM 32.0 °F 24.2 °F 18.5 °F 58% 30.14 in 10.0 mi West 9.2 mph - N/A   Overcast
9:55 PM 32.0 °F 25.6 °F 18.0 °F 56% 30.14 in 10.0 mi WNW 6.9 mph - N/A   Overcast
10:15 PM 32.0 °F 26.4 °F 18.1 °F 57% 30.13 in 10.0 mi West 5.8 mph - N/A   Overcast
10:35 PM 32.0 °F 27.5 °F 18.3 °F 57% 30.12 in 10.0 mi WNW 4.6 mph - N/A   Overcast
10:55 PM 32.0 °F 26.4 °F 18.5 °F 58% 30.11 in 10.0 mi West 5.8 mph - N/A   Overcast
11:15 PM 32.0 °F 28.7 °F 19.2 °F 59% 30.11 in 10.0 mi SW 3.5 mph - N/A   Overcast
11:35 PM 32.0 °F 27.5 °F 19.8 °F 61% 30.11 in 10.0 mi SW 4.6 mph - N/A   Overcast
11:55 PM 32.0 °F 26.4 °F 19.9 °F 61% 30.11 in 10.0 mi SW 5.8 mph - N/A   Overcast